User: anonymous   Login
Location: Dover
(39.1580°N, 75.5250°W)
Time: 01:36:31
(UTC-04:00)
Language:

Cosmos 1437 Rocket - Orbit

View from above orbital plane
View from above orbital plane
View from above satellite
View from above satellite

Ground track
Ground track

The orbit data is extracted from the following two-line orbital elements,

1 13771U 83003B   15116.71836040  .00002692  00000-0  17079-3 0  9992
2 13771 081.1546 184.3864 0031742 075.7833 284.6914 15.08158116755771
Epoch (UTC): 26 April 2015 17:14:26
Eccentricity: 0.0031742
inclination: 81.1546°
perigee height: 520 km
apogee height: 564 km
right ascension of ascending node: 184.3864°
argument of perigee: 75.7833°
revolutions per day: 15.08158116
mean anomaly at epoch: 284.6914°
orbit number at epoch: 75577

The dashed part of the orbit path shows where the satellite is in the earth's shadow,  

DLR